User: anonymous   Login
Location: Unspecified
(0.0000°N, 0.0000°E)
Time: 04:33:34
(UTC+00:00)
Language:

STARLINK-5239 - Orbit

View from above orbital plane
View from above orbital plane
View from above satellite
View from above satellite

Ground track
Ground track

The orbit is defined by the following mean orbital elements,

1 54183U          26144.93625969 +.00000000 +00000-0 -98814-5 0 00006
2 54183  53.2144  21.4557 0001088  81.9385 278.1731 15.08838715    02
Epoch (UTC): 24 May 2026 22:28:12
Eccentricity: 0.0001088
inclination: 53.2144°
perigee height: 539 km
apogee height: 541 km
right ascension of ascending node: 21.4557°
argument of perigee: 81.9385°
revolutions per day: 15.08838715
mean anomaly at epoch: 278.1731°

The dashed part of the orbit path shows where the satellite is in the earth's shadow,  

DLR